Weather History for Pine Bluffs Muni, Pine Bluffs, WY

Change the Weather History Date:

Wednesday, February 26, 2014

  Actual Average (KCYS) Record (KCYS)
Temperature  
Mean Temperature 14 °F 32 °F  
Max Temperature 35 °F 43 °F 70 °F (1950)
Min Temperature -7 °F 20 °F -13 °F (1890)
Degree Days  
Heating Degree Days 51 33  
Month to date heating degree days 928  
Since 1 July heating degree days 4955  
Cooling Degree Days 0 0  
Month to date cooling degree days 0  
Year to date cooling degree days 0  
Moisture  
Dew Point 8 °F    
Average Humidity 79    
Maximum Humidity 93    
Minimum Humidity 56    
Precipitation  
Precipitation 0.00 in 0.02 in 0.56 in (1987)
Month to date precipitation 0.43  
Year to date precipitation 0.76  
Snow  
Snow 0.00 in 0.30 in 6.40 in (1987)
Month to date snowfall 7.3  
Since 1 July snowfall 35.9  
Snow Depth -    
Sea Level Pressure  
Sea Level Pressure 30.00 in    
Wind  
Wind Speed 4 mph (WSW)    
Max Wind Speed 9 mph    
Max Gust Speed -    
Visibility 8 miles    
Events Snow    
T = Trace of Precipitation, MM = Missing Value Source: NWS Daily Summary

Daily Weather History Graph

Daily Weather History Graph

Search for Another Location

Airport:

Trip Planner

Search our weather history database for the weather conditions in past years. The results will help you decide how hot, cold, wet, or windy it might be!

Date:

Astronomy

Feb. 26, 2014 Rise Set
Actual Time 6:35 AM MST 5:44 PM MST
Civil Twilight 6:07 AM MST 6:11 PM MST
Nautical Twilight 5:35 AM MST 6:43 PM MST
Astronomical Twilight 5:03 AM MST 7:15 PM MST
Moon 4:24 AM MST (2/26) 3:00 PM MST (2/26)
Length of Visible Light 12h 04m
Length of Day
11h 08m
Waning Crescent, 9% of the Moon is Illuminated
Feb 26
Waning Crescent
Mar 1
New
Mar 8
First Quarter
Mar 16
Full
Mar 23
Last Quarter

Hourly Weather History & Observations

Time (MST) Temp. Windchill Dew Point Humidity Pressure Visibility Wind Dir Wind Speed Gust Speed Precip Events Conditions
12:15 AM -7.6 °F - -11.2 °F 84% 30.18 in 10.0 mi North - - N/A   Clear
12:35 AM -5.8 °F - -9.4 °F 84% 30.16 in 10.0 mi North - - N/A   Clear
12:55 AM -7.6 °F - -13.0 °F 77% 30.14 in 1.0 mi North - - N/A Snow Light Snow
1:15 AM -0.4 °F - -4.0 °F 85% 30.13 in 5.0 mi North - - N/A   Clear
1:35 AM 3.2 °F - 1.4 °F 92% 30.12 in 5.0 mi North - - N/A Snow Light Snow
1:55 AM 1.4 °F - -0.4 °F 92% 30.10 in 1.8 mi North - - N/A Snow Light Snow
2:15 AM -4.0 °F - -7.6 °F 85% 30.08 in 1.5 mi North - - N/A Snow Light Snow
2:35 AM 1.4 °F - -4.0 °F 78% 30.07 in 2.0 mi North - - N/A Snow Light Snow
2:55 AM 3.2 °F - -0.4 °F 85% 30.05 in 3.0 mi North - - N/A Snow Light Snow
3:15 AM 1.4 °F - -0.4 °F 92% 30.04 in 2.0 mi North - - N/A Snow Light Snow
3:35 AM 1.4 °F - -2.2 °F 85% 30.02 in 1.0 mi North - - N/A Snow Light Snow
3:55 AM 1.4 °F - -4.0 °F 78% 30.01 in 2.0 mi North - - N/A Snow Light Snow
4:15 AM 1.4 °F - -0.4 °F 92% 30.01 in 1.5 mi North - - N/A Snow Light Snow
4:35 AM 1.4 °F - -2.2 °F 85% 30.01 in 3.0 mi North - - N/A Snow Light Snow
4:55 AM -4.0 °F - -7.6 °F 85% 30.01 in 5.0 mi North - - N/A Snow Light Snow
5:15 AM -5.8 °F - -9.4 °F 84% 30.00 in 10.0 mi North - - N/A   Clear
5:35 AM -4.0 °F - -5.8 °F 92% 30.01 in 10.0 mi North - - N/A   Clear
5:55 AM -4.0 °F - -9.4 °F 78% 30.02 in 3.0 mi North - - N/A   Haze
6:15 AM -5.8 °F - -11.2 °F 77% 30.02 in 10.0 mi North - - N/A   Clear
6:35 AM -7.6 °F - -11.2 °F 84% 30.02 in 10.0 mi North - - N/A   Clear
6:55 AM -4.0 °F - -7.6 °F 85% 30.02 in 5.0 mi North - - N/A   Clear
7:15 AM -2.2 °F - -5.8 °F 85% 30.02 in 10.0 mi North - - N/A   Clear
7:35 AM -0.4 °F - -4.0 °F 85% 30.03 in 10.0 mi North - - N/A   Clear
7:55 AM 1.4 °F - -0.4 °F 92% 30.03 in 10.0 mi North - - N/A   Clear
8:15 AM 1.4 °F - -2.2 °F 85% 30.03 in 10.0 mi Calm Calm - N/A   Clear
8:35 AM 5.0 °F -4.1 °F 1.4 °F 85% 30.04 in 10.0 mi South 4.6 mph - N/A   Clear
8:55 AM 5.0 °F -2.1 °F 1.4 °F 85% 30.03 in 10.0 mi SSW 3.5 mph - N/A   Clear
9:15 AM 10.4 °F - 3.2 °F 73% 30.03 in 10.0 mi Calm Calm - N/A   Clear
9:35 AM 12.2 °F - 5.0 °F 73% 30.05 in 10.0 mi Calm Calm - N/A   Clear
9:55 AM 14.0 °F 8.2 °F 8.6 °F 79% 30.05 in 10.0 mi North 3.5 mph - N/A   Clear
10:15 AM 19.4 °F 9.5 °F 8.6 °F 63% 30.04 in 10.0 mi NNW 8.1 mph - N/A   Clear
10:35 AM 19.4 °F 10.4 °F 8.6 °F 63% 30.03 in 10.0 mi NNW 6.9 mph - N/A   Clear
10:55 AM 19.4 °F 10.4 °F 8.6 °F 63% 30.03 in 10.0 mi NW 6.9 mph - N/A   Clear
11:15 AM 23.0 °F 14.7 °F 12.2 °F 63% 30.02 in 10.0 mi WNW 6.9 mph - N/A   Clear
11:35 AM 26.6 °F 21.2 °F 17.6 °F 69% 30.02 in 10.0 mi NNW 4.6 mph - N/A   Clear
11:55 AM 28.4 °F 24.6 °F 19.4 °F 69% 30.01 in 10.0 mi SW 3.5 mph - N/A   Clear
12:15 PM 32.0 °F 25.6 °F 21.2 °F 64% 30.00 in 10.0 mi West 6.9 mph - N/A   Clear
12:35 PM 32.0 °F 28.7 °F 23.0 °F 69% 29.98 in 10.0 mi West 3.5 mph - N/A   Clear
12:55 PM 33.8 °F 26.4 °F 24.8 °F 70% 29.98 in 10.0 mi WNW 9.2 mph - N/A   Clear
1:15 PM 35.6 °F 29.2 °F 24.8 °F 65% 29.98 in 10.0 mi WNW 8.1 mph - N/A   Clear
1:35 PM 35.6 °F 31.7 °F 24.8 °F 65% 29.97 in 10.0 mi ENE 4.6 mph - N/A   Clear
1:55 PM 32.0 °F 27.5 °F 23.0 °F 69% 29.97 in 10.0 mi South 4.6 mph - N/A   Clear
2:15 PM 35.6 °F 32.8 °F 21.2 °F 56% 29.95 in 10.0 mi WNW 3.5 mph - N/A   Clear
2:35 PM 33.8 °F 28.6 °F 23.0 °F 65% 29.95 in 10.0 mi SW 5.8 mph - N/A   Clear
2:55 PM 35.6 °F 31.7 °F 21.2 °F 56% 29.95 in 10.0 mi West 4.6 mph - N/A   Clear
3:15 PM 35.6 °F 31.7 °F 23.0 °F 60% 29.95 in 10.0 mi WNW 4.6 mph - N/A   Clear
3:35 PM 32.0 °F 28.7 °F 23.0 °F 69% 29.95 in 10.0 mi South 3.5 mph - N/A   Clear
3:55 PM 33.8 °F 28.6 °F 23.0 °F 65% 29.95 in 10.0 mi SW 5.8 mph - N/A   Clear
4:15 PM 32.0 °F 27.5 °F 24.8 °F 75% 29.94 in 10.0 mi WSW 4.6 mph - N/A   Clear
4:35 PM 32.0 °F - 23.0 °F 69% 29.94 in 10.0 mi Calm Calm - N/A   Clear
4:55 PM 28.4 °F 24.6 °F 21.2 °F 74% 29.94 in 10.0 mi South 3.5 mph - N/A   Clear
5:15 PM 26.6 °F 20.0 °F 21.2 °F 80% 29.94 in 10.0 mi SSW 5.8 mph - N/A   Clear
5:35 PM 23.0 °F 15.8 °F 17.6 °F 80% 29.94 in 10.0 mi South 5.8 mph - N/A   Clear
5:55 PM 23.0 °F - 19.4 °F 86% 29.94 in 10.0 mi Calm Calm - N/A   Clear
6:15 PM 21.2 °F 12.6 °F 17.6 °F 86% 29.94 in 10.0 mi WSW 6.9 mph - N/A   Clear
6:35 PM 23.0 °F 14.7 °F 17.6 °F 80% 29.95 in 10.0 mi West 6.9 mph - N/A   Clear
6:55 PM 19.4 °F 11.5 °F 14.0 °F 80% 29.95 in 10.0 mi West 5.8 mph - N/A   Clear
7:15 PM 19.4 °F - 12.2 °F 74% 29.95 in 10.0 mi Calm Calm - N/A   Clear
7:35 PM 17.6 °F 12.3 °F 14.0 °F 86% 29.95 in 10.0 mi SSE 3.5 mph - N/A   Clear
7:55 PM 17.6 °F - 14.0 °F 86% 29.96 in 10.0 mi Calm Calm - N/A   Clear
8:15 PM 17.6 °F - 14.0 °F 86% 29.95 in 10.0 mi Calm Calm - N/A   Clear
8:35 PM 17.6 °F 10.7 °F 14.0 °F 86% 29.95 in 10.0 mi SSW 4.6 mph - N/A   Clear
8:55 PM 14.0 °F 3.9 °F 12.2 °F 93% 29.96 in 10.0 mi SSW 6.9 mph - N/A   Clear
9:15 PM 14.0 °F - 12.2 °F 93% 29.96 in 10.0 mi Calm Calm - N/A   Clear
9:35 PM 14.0 °F 6.5 °F 12.2 °F 93% 29.95 in 10.0 mi West 4.6 mph - N/A   Clear
9:55 PM 14.0 °F - 12.2 °F 93% 29.95 in 10.0 mi Calm Calm - N/A   Clear
10:15 PM 12.2 °F 2.9 °F 10.4 °F 92% 29.94 in 10.0 mi West 5.8 mph - N/A   Clear
10:35 PM 12.2 °F 1.7 °F 8.6 °F 85% 29.93 in 10.0 mi West 6.9 mph - N/A   Clear
10:55 PM 12.2 °F 0.7 °F 8.6 °F 85% 29.92 in 10.0 mi West 8.1 mph - N/A   Clear
11:15 PM 10.4 °F - 8.6 °F 92% 29.92 in 10.0 mi Calm Calm - N/A   Clear
11:35 PM 10.4 °F 4.0 °F 6.8 °F 85% 29.91 in 10.0 mi SSW 3.5 mph - N/A   Clear
11:55 PM 10.4 °F - 8.6 °F 92% 29.90 in 10.0 mi Calm Calm - N/A   Clear